Vorticity
nan nan nan nan nan nan nan nan nan nan nan nan nan nan nan nan nan nan nan nan nan nan nan nan nan nan nan nan nan nan nan nan nan
nan 11 12 13 10 9 9 9 8 8 7 7 8 7 7 9 7 7 7 8 7 8 9 9 9 10 8 8 9 9 8 8 nan
nan 10 11 12 10 9 8 9 9 9 10 10 8 8 7 9 9 7 7 8 8 7 8 10 10 9 8 9 9 10 8 8 nan
nan 15 13 10 11 10 9 10 11 8 9 10 9 8 8 8 9 8 8 7 9 9 8 9 9 10 9 9 9 10 8 8 nan
nan 14 11 14 16 11 11 10 10 8 8 9 9 10 9 8 9 9 7 7 8 9 7 9 9 9 9 9 9 9 9 8 nan
nan 14 18 18 14 13 10 9 9 10 9 9 8 10 9 9 8 9 8 8 7 8 8 7 8 9 9 9 10 9 9 9 nan
nan 14 18 19 15 12 11 14 12 9 8 10 10 9 9 8 8 8 9 9 9 8 9 7 8 7 9 9 10 9 9 9 nan
nan 10 12 15 18 17 13 10 11 12 12 9 10 9 9 10 9 10 10 10 10 9 9 9 9 8 9 9 9 9 9 9 nan
nan 7 9 10 11 15 18 14 10 11 11 11 10 9 8 10 11 11 10 10 10 9 9 11 10 10 10 8 9 12 8 5 nan
nan 7 8 10 9 8 11 17 17 13 10 10 10 8 11 10 10 10 9 9 11 10 10 11 10 10 11 11 12 12 10 4 nan
nan 7 8 10 10 9 11 9 13 18 17 12 10 9 7 10 10 7 9 9 8 9 11 9 10 11 10 9 10 12 12 12 nan
nan 7 9 9 9 10 8 8 10 15 18 13 11 11 8 8 9 8 7 8 9 9 9 9 10 8 8 7 8 16 14 11 nan
nan 11 9 9 10 12 10 8 10 11 15 16 14 12 11 11 11 10 9 9 8 10 12 10 9 10 12 10 8 11 17 10 nan
nan 10 9 11 10 8 10 11 9 9 9 12 12 12 14 15 13 12 10 9 12 11 10 11 12 11 9 12 14 12 14 12 nan
nan 13 14 10 11 9 10 11 10 9 9 10 11 11 14 14 11 10 14 13 10 11 11 11 11 10 9 11 13 13 12 10 nan
nan 8 12 16 11 8 10 13 11 8 9 10 11 11 10 9 15 14 13 12 10 12 10 9 10 10 9 8 8 10 12 10 nan
nan 12 9 12 13 11 10 12 10 10 8 10 10 10 10 12 13 12 11 13 13 11 10 9 11 10 10 9 8 8 10 11 nan
nan 10 11 11 8 10 12 12 13 10 10 10 8 10 12 10 11 13 10 11 15 16 14 15 14 12 12 11 11 14 13 9 nan
nan 10 10 9 9 11 11 10 12 14 14 9 8 8 11 13 12 12 12 7 1 9 20 15 16 18 11 10 18 21 14 13 nan
nan nan nan nan nan nan nan nan nan nan nan nan nan nan nan nan nan nan nan nan nan nan nan nan nan nan nan nan nan nan nan nan nan
CAPE
0 10 0 47 63 101 134 149 117 77 0 0 0 0 0 0 6 5 3 0 197 190 132 244 435 806 607 850 1163 1268 1100 907 859
1 0 0 69 101 115 162 170 147 80 28 9 0 0 0 0 0 19 11 13 27 66 32 35 78 544 715 888 1149 946 1303 1110 1144
39 18 0 62 172 185 207 253 161 162 79 42 3 0 0 0 0 15 91 83 85 123 139 14 12 32 490 869 1147 1161 1091 989 1124
0 2 4 12 244 286 267 294 222 220 176 100 29 13 4 0 0 68 160 195 140 158 286 254 211 424 413 530 819 952 1037 1224 1149
0 0 0 0 123 400 363 315 250 226 238 180 89 51 42 25 32 80 166 286 318 237 245 373 655 747 453 318 482 497 647 1121 1479
0 0 0 29 96 371 443 361 297 229 249 192 106 26 0 47 29 90 172 277 301 362 557 654 860 680 583 464 376 62 12 641 1191
0 0 14 106 106 152 473 456 362 353 365 260 159 67 0 0 72 66 124 247 242 299 369 506 564 658 680 546 495 356 281 484 875
0 2 34 63 230 114 220 379 336 646 515 428 317 191 65 0 0 81 135 193 230 332 389 455 478 562 722 766 462 406 721 1086 972
0 0 3 16 42 252 154 203 248 532 620 585 437 345 214 88 62 127 138 199 289 478 578 676 619 650 758 835 916 809 528 751 1082
0 8 6 0 1 46 81 319 143 203 446 534 430 420 393 272 96 108 162 253 419 580 764 895 860 859 840 875 843 711 648 441 1211
0 0 0 3 0 0 15 30 490 248 216 406 427 445 383 361 364 336 252 381 489 567 829 1033 965 540 710 770 821 370 159 74 643
0 0 0 1 3 0 6 7 16 551 312 407 472 549 504 404 482 607 383 299 543 854 753 759 951 652 264 138 397 333 141 0 254
0 0 0 7 35 5 4 0 0 5 639 533 797 741 674 595 718 598 813 768 598 788 830 997 854 485 349 257 495 95 56 1 170
0 0 0 24 105 95 65 0 0 0 0 152 793 862 948 1008 979 1163 920 1199 1278 758 687 408 426 533 497 217 199 177 1 1 378
0 0 0 3 38 46 67 7 0 0 0 0 27 312 1231 1227 1129 1274 1362 1276 1028 707 603 695 565 433 221 161 148 31 1 1 6
0 0 0 0 0 3 20 7 0 0 0 0 28 71 51 166 1297 1335 1171 951 797 841 705 769 594 461 363 226 1 2 0 0 0
0 0 0 0 0 0 15 0 0 0 0 0 0 0 3 0 349 1049 1080 1031 872 881 649 479 449 323 268 227 58 1 2 1 1
0 0 0 0 0 0 0 0 0 0 0 0 0 0 0 0 228 718 889 442 310 478 304 367 280 161 125 5 1 0 0 0 3
0 0 0 0 0 0 0 0 0 0 0 0 0 0 0 0 181 689 119 0 1 1 2 2 2 0 0 1 1 1 1 0 1
0 0 0 0 0 0 0 0 0 0 0 0 0 83 30 6 144 245 0 0 0 0 2 1 1 1 1 1 0 2 2 2 1